Skip Page Navigation
NASA JPL Caltech
NASA Logo - Jet Propulsion Laboratory + View the NASA Portal
+ Center for Near-Earth Object Studies
JPL Home Earth Solar System Stars & Galaxies Technology
JPL Solar System Dynamics
BODIES ORBITS EPHEMERIDES TOOLS PHYSICAL DATA DISCOVERY FAQ SITE MAP
JPL Small-Body Database Browser
Search: [ help ]  
135627 (2002 JU76)
Classification: Main-belt Asteroid          SPK-ID: 2135627
Ephemeris | Orbit Diagram | Orbital Elements | Mission Design | Physical Parameters | Discovery Circumstances | Close-Approach Data ]

[ show orbit diagram ]
Orbital Elements at Epoch 2459200.5 (2020-Dec-17.0) TDB
Reference: JPL 17 (heliocentric ecliptic J2000)
 Element Value Uncertainty (1-sigma)   Units 
e .09091601598293599 3.3585e-08  
a 2.273346504096512 8.8874e-09 au
q 2.066662896995322 7.4974e-08 au
i 5.969602386409784 6.1662e-06 deg
node 27.05656958388966 4.0749e-05 deg
peri 229.7642126826753 5.7094e-05 deg
M 113.0130256725621 4.0676e-05 deg
tp 2458807.472550989699
(2019-Nov-19.97255099)
0.00014111 TDB
period 1251.978529038356
3.43
7.3417e-06
2.01e-08
d
yr
n .2875448673041668 1.6862e-09 deg/d
Q 2.480030111197702 9.6954e-09 au
  Orbit Determination Parameters
   # obs. used (total)      501  
   data-arc span      6877 days (18.83 yr)  
   first obs. used      2002-03-09  
   last obs. used      2021-01-05  
   planetary ephem.      DE441  
   SB-pert. ephem.      SB441-N16  
   condition code      0  
   norm. resid. RMS      .59145  
   source      ORB  
   producer      Otto Matic  
   solution date      2021-Apr-13 18:13:53  

Additional Information
 Earth MOID = 1.05641 au 
 Jupiter MOID = 2.55026 au 
 T_jup = 3.598 
[ show covariance matrix ]

Ephemeris | Orbit Diagram | Orbital Elements | Mission Design | Physical Parameters | Discovery Circumstances | Close-Approach Data ]

Physical Parameter Table
Parameter Symbol Value Units Sigma Reference Notes
absolute magnitude H 16.62   n/a E2021B55  

135627 (2002 JU76)          Discovered 2002-May-11 by LINEAR at Socorro
Reference: 20060907/Numbers.arcLast Updated: 2006-09-10

[ show close-approach data ]
Alternate Designations
 2002 JU76 = 2002 GP166 
Ephemeris | Orbit Diagram | Orbital Elements | Mission Design | Physical Parameters | Discovery Circumstances | Close-Approach Data ]
ABOUT SSD CREDITS/AWARDS PRIVACY/COPYRIGHT GLOSSARY LINKS
FirstGov 2021-May-12 09:31 UT
(server date/time)  
NASA Home Page
Site Manager:   Ryan S. Park
Webmaster  Alan B. Chamberlin